SL-14 R/B (17912 NORAD) Tracking and Keplerian Element Data

This shows tracking and keplerian element data for the satellite.

Feedback or suggestion? Click here.




ElementValue
Catalog17912
NameSL-14 R/B
Epoch Orbit85470
Epoch Day15.86386751
Epoch Year2022
RAAN279.8069
Inclination82.5025
Eccentricity0.0021559
Argument of Perigee116.6376
Mean Anonmoly243.7051
Mean Motion14.83124587
Decay Rate1.88E-06
L11 17912U 87038B 22015.86386751 .00000188 00000+0 19982-4 0 9999
L22 17912 82.5025 279.8069 0021559 116.6376 243.7051 14.83124587854706

Live tracking and technical data element details for SL-14 R/B (NORAD 17912). SL-14 R/B can be tracked NOW for your location showing map with azimuth and elevation plus other details from your city location.

Track the satellite on the map from your city or location and see movement details for azimuth, elevation, latitude, longitude, range, height, and movement on the map or in text.







IsCatalogInMostPopularTable: catalog: 17912, numindb: 321
Update: records affected: 1



GetName: 17912 SL-14 R/B

Hit Count: updated at: Mon, 17 Jan 2022 00:52:27 GMT